Location: ?????
(33.6267°N, 35.4675°E)
Time: 20:34:01
(UTC+00:00)

CZ-3 Stage 3 - Pass Details

Date: 12 November 2019
Orbit: 249 x 16017 km, 30.8° (Epoch: 11 December)

Event Time Altitude Azimuth Distance (km) Brightness Sun altitude
Rises 15:12:28 0° 278° (W) 7,251 8.4 -7.7°
Reaches altitude 10° 15:19:44 10° 274° (W) 4,222 7.1 -9.2°
Maximum altitude 15:27:35 40° 207° (SSW) 960 2.9 -10.8°
Drops below altitude 10° 15:30:18 10° 134° (SE) 1,452 3.2 -11.3°
Enters shadow 15:30:42 - 130° (SE) 1,618 3.4 -11.4°
